| time (UTC) | temp F | wind direction | speed MPH | gust MPH | rain 1hr in | rain 24hr in | rain mn in | humidity % | barometer mb |
| 20260901104548 | 0 | 0.0 | 0.0 | 0.00 | 0.00 | 0.00 | 1014.0 | ||
| 20260901103048 | 0 | 0.0 | 0.0 | 0.00 | 0.00 | 0.00 | 1014.1 | ||
| 20260901101555 | 0 | 0.0 | 0.0 | 0.00 | 0.00 | 0.00 | 1014.0 | ||
| 20260901100036 | 0 | 0.0 | 0.0 | 0.00 | 0.00 | 0.00 | 1014.1 | ||
| 20260901094536 | 0 | 0.0 | 0.0 | 0.00 | 0.00 | 0.00 | 1014.1 | ||
| 20260901093028 | 0 | 0.0 | 0.0 | 0.00 | 0.00 | 0.00 | 1014.2 | ||
| 20260901091524 | 0 | 0.0 | 0.0 | 0.00 | 0.00 | 0.00 | 1014.2 | ||
| 20260901090019 | 0 | 0.0 | 0.0 | 0.00 | 0.00 | 0.00 | 1014.3 | ||
| 20260901084515 | 0 | 0.0 | 0.0 | 0.00 | 0.00 | 0.00 | 1014.1 | ||
| 20260901083017 | 82 | 82 | 0.0 | 3.0 | 0.00 | 0.00 | 0.00 | 62 | 1014.1 |
| 20260901081509 | 82 | 266 | 0.0 | 3.0 | 0.00 | 0.00 | 0.00 | 62 | 1014.1 |
| 20260901080005 | 81 | 176 | 0.0 | 1.0 | 0.00 | 0.00 | 0.00 | 62 | 1014.0 |
| 20260901074501 | 80 | 148 | 0.0 | 0.0 | 0.00 | 0.00 | 0.00 | 63 | 1014.0 |
| 20260901073058 | 79 | 148 | 0.0 | 0.0 | 0.00 | 0.00 | 0.00 | 65 | 1013.9 |
| 20260901071559 | 78 | 148 | 0.0 | 0.0 | 0.00 | 0.00 | 0.00 | 66 | 1013.7 |
| 20260901070106 | 77 | 148 | 0.0 | 0.0 | 0.00 | 0.00 | 0.00 | 68 | 1013.7 |
| 20260901064553 | 77 | 148 | 0.0 | 0.0 | 0.00 | 0.00 | 0.00 | 71 | 1013.6 |
| 20260901063105 | 77 | 148 | 0.0 | 0.0 | 0.00 | 0.00 | 0.00 | 69 | 1013.5 |
| 20260901061551 | 77 | 148 | 0.0 | 0.0 | 0.00 | 0.00 | 0.00 | 69 | 1013.5 |
| 20260901060047 | 77 | 148 | 0.0 | 0.0 | 0.00 | 0.00 | 0.00 | 68 | 1013.3 |
| 20260901054545 | 78 | 148 | 0.0 | 0.0 | 0.00 | 0.00 | 0.00 | 67 | 1013.1 |
| 20260901053105 | 78 | 148 | 0.0 | 0.0 | 0.00 | 0.00 | 0.00 | 65 | 1012.9 |
| 20260901051557 | 78 | 148 | 0.0 | 0.0 | 0.00 | 0.00 | 0.00 | 63 | 1012.7 |
| 20260901050038 | 79 | 148 | 0.0 | 0.0 | 0.00 | 0.00 | 0.00 | 65 | 1012.6 |
| 20260901044537 | 79 | 148 | 0.0 | 0.0 | 0.00 | 0.00 | 0.00 | 62 | 1012.6 |
| 20260901043040 | 79 | 148 | 0.0 | 0.0 | 0.00 | 0.00 | 0.00 | 66 | 1012.6 |
| 20260901041551 | 79 | 148 | 0.0 | 0.0 | 0.00 | 0.00 | 0.00 | 62 | 1012.7 |
| 20260901040036 | 79 | 148 | 0.0 | 0.0 | 0.00 | 0.00 | 0.00 | 62 | 1012.6 |
| 20260901034536 | 80 | 148 | 0.0 | 0.0 | 0.00 | 0.00 | 0.00 | 62 | 1012.7 |
| 20260901033035 | 81 | 148 | 0.0 | 0.0 | 0.00 | 0.00 | 0.00 | 61 | 1012.6 |
| 20260901031550 | 81 | 148 | 0.0 | 0.0 | 0.00 | 0.00 | 0.00 | 58 | 1012.6 |
| 20260901030034 | 82 | 148 | 0.0 | 0.0 | 0.00 | 0.00 | 0.00 | 57 | 1012.5 |
| 20260901024533 | 83 | 148 | 0.0 | 0.0 | 0.00 | 0.00 | 0.00 | 53 | 1012.3 |
| 20260901023035 | 84 | 148 | 0.0 | 0.0 | 0.00 | 0.00 | 0.00 | 52 | 1012.1 |
| 20260901021535 | 85 | 148 | 0.0 | 0.0 | 0.00 | 0.00 | 0.00 | 50 | 1011.9 |
| 20260901020032 | 86 | 148 | 0.0 | 0.0 | 0.00 | 0.00 | 0.00 | 48 | 1011.8 |
| 20260901014542 | 88 | 148 | 0.0 | 0.0 | 0.00 | 0.00 | 0.00 | 45 | 1011.6 |
| 20260901013031 | 89 | 259 | 0.0 | 0.0 | 0.00 | 0.00 | 0.00 | 42 | 1011.5 |
| 20260901011530 | 90 | 258 | 0.0 | 0.0 | 0.00 | 0.00 | 0.00 | 40 | 1011.4 |
| 20260901010030 | 92 | 132 | 0.0 | 0.0 | 0.00 | 0.00 | 0.00 | 39 | 1011.3 |
| 20260901004529 | 93 | 248 | 0.0 | 0.0 | 0.00 | 0.00 | 0.00 | 39 | 1011.3 |
| 20260901003032 | 94 | 250 | 0.0 | 1.0 | 0.00 | 0.00 | 0.00 | 36 | 1011.3 |
| 20260901001536 | 94 | 218 | 0.0 | 1.0 | 0.00 | 0.00 | 0.00 | 35 | 1011.3 |
| 20260901000027 | 95 | 221 | 0.0 | 2.0 | 0.00 | 0.00 | 0.00 | 34 | 1011.2 |
| 20260831234530 | 96 | 139 | 0.0 | 3.0 | 0.00 | 0.00 | 0.00 | 33 | 1011.2 |
| 20260831233026 | 96 | 66 | 1.0 | 5.0 | 0.00 | 0.00 | 0.00 | 33 | 1011.3 |
| 20260831231526 | 97 | 98 | 0.0 | 4.0 | 0.00 | 0.00 | 0.00 | 33 | 1011.2 |
| 20260831230026 | 97 | 158 | 1.0 | 4.0 | 0.00 | 0.00 | 0.00 | 33 | 1011.2 |
| 20260831224525 | 97 | 253 | 1.0 | 5.0 | 0.00 | 0.00 | 0.00 | 33 | 1011.3 |
| 20260831223023 | 97 | 248 | 1.0 | 6.0 | 0.00 | 0.00 | 0.00 | 33 | 1011.4 |
| 20260831221523 | 97 | 119 | 0.0 | 6.0 | 0.00 | 0.00 | 0.00 | 32 | 1011.5 |
| 20260831220020 | 97 | 239 | 1.0 | 6.0 | 0.00 | 0.00 | 0.00 | 33 | 1011.6 |
| 20260831214523 | 98 | 129 | 0.0 | 4.0 | 0.00 | 0.00 | 0.00 | 33 | 1011.8 |
| 20260831213017 | 99 | 113 | 0.0 | 6.0 | 0.00 | 0.00 | 0.00 | 32 | 1011.9 |
| 20260831211519 | 99 | 288 | 1.0 | 7.0 | 0.00 | 0.00 | 0.00 | 32 | 1012.0 |
| 20260831210014 | 99 | 105 | 0.0 | 6.0 | 0.00 | 0.00 | 0.00 | 32 | 1012.2 |
| 20260831204519 | 98 | 165 | 0.0 | 8.0 | 0.00 | 0.00 | 0.00 | 33 | 1012.5 |
| 20260831203020 | 97 | 150 | 0.0 | 4.0 | 0.00 | 0.00 | 0.00 | 34 | 1012.7 |
| 20260831201513 | 98 | 271 | 1.0 | 10.0 | 0.00 | 0.00 | 0.00 | 34 | 1012.9 |
| 20260831200012 | 99 | 245 | 1.0 | 7.0 | 0.00 | 0.00 | 0.00 | 32 | 1012.9 |
| 20260831194507 | 98 | 135 | 2.0 | 6.0 | 0.00 | 0.00 | 0.00 | 34 | 1013.0 |
| 20260831193007 | 98 | 160 | 1.0 | 6.0 | 0.00 | 0.00 | 0.00 | 34 | 1013.5 |
| 20260831191504 | 97 | 256 | 3.0 | 8.0 | 0.00 | 0.00 | 0.00 | 35 | 1013.6 |
| 20260831190003 | 98 | 114 | 1.0 | 7.0 | 0.00 | 0.00 | 0.00 | 35 | 1013.7 |
| 20260831184502 | 98 | 120 | 2.0 | 6.0 | 0.00 | 0.00 | 0.00 | 36 | 1013.8 |
| 20260831183002 | 98 | 91 | 2.0 | 10.0 | 0.00 | 0.00 | 0.00 | 35 | 1014.1 |
| 20260831181559 | 97 | 208 | 1.0 | 6.0 | 0.00 | 0.00 | 0.00 | 36 | 1014.3 |
| 20260831180057 | 97 | 233 | 0.0 | 6.0 | 0.00 | 0.00 | 0.00 | 39 | 1014.7 |
| 20260831174554 | 96 | 139 | 2.0 | 8.0 | 0.00 | 0.00 | 0.00 | 40 | 1014.8 |
| 20260831173055 | 96 | 240 | 0.0 | 4.0 | 0.00 | 0.00 | 0.00 | 40 | 1015.0 |
| 20260831171551 | 96 | 115 | 0.0 | 6.0 | 0.00 | 0.00 | 0.00 | 41 | 1015.1 |
| 20260831170053 | 95 | 9 | 1.0 | 4.0 | 0.00 | 0.00 | 0.00 | 43 | 1015.3 |
| 20260831164545 | 94 | 215 | 1.0 | 6.0 | 0.00 | 0.00 | 0.00 | 42 | 1015.4 |
| 20260831163048 | 94 | 179 | 1.0 | 4.0 | 0.00 | 0.00 | 0.00 | 42 | 1015.3 |
| 20260831161541 | 93 | 113 | 1.0 | 4.0 | 0.00 | 0.00 | 0.00 | 43 | 1015.4 |
| 20260831160045 | 92 | 259 | 0.0 | 5.0 | 0.00 | 0.00 | 0.00 | 45 | 1015.5 |
| 20260831154536 | 92 | 133 | 1.0 | 5.0 | 0.00 | 0.00 | 0.00 | 45 | 1015.4 |
| 20260831153031 | 91 | 188 | 0.0 | 2.0 | 0.00 | 0.00 | 0.00 | 49 | 1015.3 |
| 20260831151533 | 90 | 188 | 0.0 | 4.0 | 0.00 | 0.00 | 0.00 | 51 | 1015.3 |
| 20260831150025 | 89 | 240 | 0.0 | 4.0 | 0.00 | 0.00 | 0.00 | 53 | 1015.1 |
| 20260831144520 | 87 | 184 | 0.0 | 6.0 | 0.00 | 0.00 | 0.00 | 56 | 1015.1 |
| 20260831143018 | 86 | 248 | 0.0 | 3.0 | 0.00 | 0.00 | 0.00 | 62 | 1015.1 |
| 20260831141514 | 84 | 273 | 0.0 | 5.0 | 0.00 | 0.00 | 0.00 | 65 | 1015.1 |
| 20260831140013 | 83 | 259 | 0.0 | 3.0 | 0.00 | 0.00 | 0.00 | 67 | 1015.2 |
| 20260831134521 | 82 | 252 | 0.0 | 4.0 | 0.00 | 0.00 | 0.00 | 68 | 1015.1 |
| 20260831133009 | 82 | 169 | 0.0 | 2.0 | 0.00 | 0.00 | 0.00 | 70 | 1014.8 |
| 20260831131506 | 81 | 250 | 0.0 | 2.0 | 0.00 | 0.00 | 0.00 | 71 | 1014.5 |
| 20260831130004 | 79 | 198 | 0.0 | 1.0 | 0.00 | 0.00 | 0.00 | 74 | 1014.4 |
| 20260831124502 | 77 | 203 | 0.0 | 2.0 | 0.00 | 0.00 | 0.00 | 76 | 1014.1 |
| 20260831123059 | 0 | 0.0 | 0.0 | 0.00 | 0.00 | 0.00 | 1014.0 | ||
| 20260831121603 | 0 | 0.0 | 0.0 | 0.00 | 0.00 | 0.00 | 1013.8 | ||
| 20260831120050 | 0 | 0.0 | 0.0 | 0.00 | 0.00 | 0.00 | 1013.6 | ||
| 20260831114551 | 0 | 0.0 | 0.0 | 0.00 | 0.00 | 0.00 | 1013.4 | ||
| 20260831113042 | 0 | 0.0 | 0.0 | 0.00 | 0.00 | 0.00 | 1013.4 | ||
| 20260831111539 | 0 | 0.0 | 0.0 | 0.00 | 0.00 | 0.00 | 1013.2 | ||
| 20260831110035 | 0 | 0.0 | 0.0 | 0.00 | 0.00 | 0.00 | 1013.1 |